Hourly Data Report for October 21, 2013

All times are specified in Local Standard Time (LST). Add 1 hour to adjust for Daylight Saving Time where and when it is observed.

FREDERICTON
NEW BRUNSWICK

45°52'08.000" N
66°32'14.000" W
20.70 m
8101505
71700
YFC

Download Data

Hourly Data (October 2013)
Hourly Data Report for October 21, 2013
Temp Definition
°C
Dew Point Temp Definition
°C
Rel Hum Definition
%
Wind Dir Definition
10's deg

Wind Spd Definition
km/h
Visibility Definition
km
Stn Press Definition
kPa
Hmdx Definition


Wind Chill Definition


Weather Definition


TIME
00:00 Legend Double Dagger 5.8 0.8 70 21 9 16.1 100.65     LegendNANA
01:00 Legend Double Dagger 3.4 0.5 81 21 9 16.1 100.69     LegendNANA
02:00 Legend Double Dagger 3.2 0.3 81 23 15 16.1 100.74     LegendNANA
03:00 Legend Double Dagger 4.3 0.4 76 23 11 16.1 100.77     LegendNANA
04:00 Legend Double Dagger 3.6 0.3 79 26 11 16.1 100.81     LegendNANA
05:00 Legend Double Dagger 2.2 -0.1 85 23 15 16.1 100.88     LegendNANA
06:00 Legend Double Dagger 1.7 -0.4 86 23 15 16.1 100.95     LegendNANA
07:00 Legend Double Dagger 1.8 -0.3 86 21 4 16.1 101.06     LegendNANA
08:00 Legend Double Dagger 3.7 0.8 82 23 8 16.1 101.13     LegendNANA
09:00 Legend Double Dagger 6.6 1.5 70 25 13 16.1 101.18     LegendNANA
10:00 Legend Double Dagger 8.4 1.5 62 25 11 16.1 101.19     LegendNANA
11:00 Legend Double Dagger 9.5 1.8 58 28 18 16.1 101.18     LegendNANA
12:00 Legend Double Dagger 10.2 1.8 56 29 17 16.1 101.19     LegendNANA
13:00 Legend Double Dagger 11.5 2.3 53 26 18 16.1 101.18     LegendNANA
14:00 Legend Double Dagger 12.1 2.6 52 27 18 16.1 101.17     LegendNANA
15:00 Legend Double Dagger 12.6 2.7 51 30 18 16.1 101.19     LegendNANA
16:00 Legend Double Dagger 12.3 2.9 53 30 11 16.1 101.23     LegendNANA
17:00 Legend Double Dagger 11.1 3.0 57 31 5 16.1 101.29     LegendNANA
18:00 Legend Double Dagger 6.8 4.2 83 28 4 16.1 101.32     LegendNANA
19:00 Legend Double Dagger 4.7 3.4 91 19 5 16.1 101.34     LegendNANA
20:00 Legend Double Dagger 4.2 3.1 93 20 9 16.1 101.36     LegendNANA
21:00 Legend Double Dagger 2.9 2.3 96   0 16.1 101.41     LegendNANA
22:00 Legend Double Dagger 2.9 1.9 93   0 16.1 101.41     LegendNANA
23:00 Legend Double Dagger 2.7 2.3 97 14 5 16.1 101.41     LegendNANA

Notes on Data Quality.

Legend

  • E = Estimated
  • M = Missing
  • NA = Not Available
  • ‡ = Partner data that is not subject to review by the National Climate Archives
Date modified: